PERSEUS-M2

Last updated on Mon Dec 08 2025 00:03:48 GMT+0000 (Coordinated Universal Time)

1 40037U 14033AD 25341.25674856 .00004287 00000+0 40052-3 0 9997 2 40037 97.9754 283.2789 0011088 209.0343 151.0262 14.94658516622102
UTC large
Height (km)
Speed (km/s)
/
Latitude / Longitude
Inclination (degrees)
Orbital Period (minutes)
Azimuth
Elevation
Range (km)
Doppler Factor

Next 0 passes for location: London (51.5072 / 0.1276)

Sorry there are no passes over London.